Time,TemperatureF,DewpointF,PressureIn,WindDirection,WindDirectionDegrees,WindSpeedMPH,WindSpeedGustMPH,Humidity,HourlyPrecipIn,Conditions,Clouds,dailyrainin,SoftwareType,DateUTC
2013-01-09 00:02:00,49.0,37.0,30.20,SSE,157,0.0,0.0,63,0.00,,,0.00,,2013-01-09 06:02:00,
2013-01-09 00:12:00,49.0,37.0,30.20,SSE,157,0.0,0.0,63,0.00,,,0.00,,2013-01-09 06:12:00,
2013-01-09 00:22:00,49.0,37.0,30.22,SSE,167,0.0,0.0,63,0.00,,,0.00,,2013-01-09 06:22:00,
2013-01-09 00:32:00,50.0,38.0,30.21,SSE,157,0.0,0.0,63,0.00,,,0.00,,2013-01-09 06:32:00,
2013-01-09 00:42:00,50.0,38.0,30.21,SSE,157,0.0,0.0,63,0.00,,,0.00,,2013-01-09 06:42:00,
2013-01-09 00:52:00,50.0,38.0,30.22,SE,145,0.0,0.0,63,0.00,,,0.00,,2013-01-09 06:52:00,
2013-01-09 01:02:00,50.0,38.0,30.23,SSE,157,0.0,0.0,64,0.00,,,0.00,,2013-01-09 07:02:00,
2013-01-09 01:12:00,50.0,38.0,30.23,SSE,157,0.0,0.0,64,0.00,,,0.00,,2013-01-09 07:12:00,
2013-01-09 01:22:00,50.0,39.0,30.23,SSE,163,0.0,0.0,65,0.00,,,0.00,,2013-01-09 07:22:00,
2013-01-09 01:32:00,50.0,39.0,30.24,SSE,153,0.0,0.0,65,0.00,,,0.00,,2013-01-09 07:32:00,
2013-01-09 01:42:00,50.0,39.0,30.24,SSE,153,0.0,0.0,65,0.00,,,0.00,,2013-01-09 07:42:00,
2013-01-09 01:52:00,50.0,39.0,30.26,SSE,157,0.0,0.0,66,0.00,,,0.00,,2013-01-09 07:52:00,
2013-01-09 02:02:00,50.0,40.0,30.25,SE,143,0.0,0.0,68,0.00,,,0.00,,2013-01-09 08:02:00,
2013-01-09 02:12:00,50.0,40.0,30.25,SE,143,0.0,0.0,68,0.00,,,0.00,,2013-01-09 08:12:00,
2013-01-09 02:22:00,50.0,41.0,30.26,SSE,150,0.0,0.0,70,0.00,,,0.00,,2013-01-09 08:22:00,
2013-01-09 02:32:00,50.0,41.0,30.27,SSE,148,0.0,0.0,72,0.00,,,0.00,,2013-01-09 08:32:00,
2013-01-09 02:42:00,50.0,41.0,30.27,SSE,148,0.0,0.0,72,0.00,,,0.00,,2013-01-09 08:42:00,
2013-01-09 02:53:00,50.0,42.0,30.27,SSE,161,0.0,0.0,74,0.00,,,0.00,,2013-01-09 08:53:00,
2013-01-09 03:02:00,50.0,43.0,30.27,SSE,168,0.0,0.0,76,0.00,,,0.00,,2013-01-09 09:02:00,
2013-01-09 03:12:00,50.0,43.0,30.27,SSE,168,0.0,0.0,76,0.00,,,0.00,,2013-01-09 09:12:00,
2013-01-09 03:22:00,50.0,43.0,30.27,South,176,0.0,0.0,77,0.00,,,0.00,,2013-01-09 09:22:00,
2013-01-09 03:32:00,50.0,43.0,30.28,SSE,163,0.0,0.0,78,0.00,,,0.00,,2013-01-09 09:32:00,
2013-01-09 03:42:00,50.0,43.0,30.28,SSE,163,0.0,0.0,78,0.00,,,0.00,,2013-01-09 09:42:00,
2013-01-09 03:53:00,50.0,43.0,30.28,South,173,0.0,0.0,78,0.00,,,0.00,,2013-01-09 09:53:00,
2013-01-09 04:02:00,51.0,44.0,30.28,SSE,160,0.0,0.0,77,0.00,,,0.00,,2013-01-09 10:02:00,
2013-01-09 04:12:00,51.0,44.0,30.28,SSE,160,0.0,0.0,77,0.00,,,0.00,,2013-01-09 10:12:00,
2013-01-09 04:22:00,51.0,44.0,30.28,South,185,0.0,0.0,76,0.00,,,0.00,,2013-01-09 10:22:00,
2013-01-09 04:32:00,51.0,44.0,30.29,South,186,0.0,0.0,76,0.00,,,0.00,,2013-01-09 10:32:00,
2013-01-09 04:42:00,51.0,44.0,30.29,South,186,0.0,0.0,76,0.00,,,0.00,,2013-01-09 10:42:00,
2013-01-09 04:52:00,51.0,44.0,30.29,South,179,0.0,0.0,76,0.00,,,0.00,,2013-01-09 10:52:00,
2013-01-09 05:02:00,50.0,43.0,30.29,SSW,201,0.0,0.0,78,0.00,,,0.00,,2013-01-09 11:02:00,
2013-01-09 05:12:00,50.0,43.0,30.29,SSW,201,0.0,0.0,78,0.00,,,0.00,,2013-01-09 11:12:00,
2013-01-09 05:22:00,49.0,42.0,30.31,SSW,207,0.0,0.0,78,0.00,,,0.00,,2013-01-09 11:22:00,
2013-01-09 05:32:00,49.0,43.0,30.31,North,360,0.0,0.0,80,0.00,,,0.00,,2013-01-09 11:32:00,
2013-01-09 05:42:00,49.0,43.0,30.31,North,360,0.0,0.0,80,0.00,,,0.00,,2013-01-09 11:42:00,
2013-01-09 05:53:00,48.0,42.0,30.31,SSW,196,0.0,0.0,80,0.00,,,0.00,,2013-01-09 11:53:00,
2013-01-09 06:03:00,47.0,41.0,30.31,SSW,192,0.0,0.0,81,0.00,,,0.00,,2013-01-09 12:03:00,
2013-01-09 06:12:00,47.0,41.0,30.31,SSW,192,0.0,0.0,81,0.00,,,0.00,,2013-01-09 12:12:00,
2013-01-09 06:23:00,47.0,42.0,30.32,SSW,207,0.0,0.0,82,0.00,,,0.00,,2013-01-09 12:23:00,
2013-01-09 06:33:00,46.0,41.0,30.33,SSW,200,0.0,0.0,83,0.00,,,0.00,,2013-01-09 12:33:00,
2013-01-09 06:43:00,46.0,41.0,30.33,SSW,200,0.0,0.0,83,0.00,,,0.00,,2013-01-09 12:43:00,
2013-01-09 06:53:00,46.0,41.0,30.34,North,360,0.0,0.0,83,0.00,,,0.00,,2013-01-09 12:53:00,
2013-01-09 07:02:00,45.0,40.0,30.36,North,360,0.0,0.0,84,0.00,,,0.00,,2013-01-09 13:02:00,
2013-01-09 07:12:00,45.0,40.0,30.36,North,360,0.0,0.0,84,0.00,,,0.00,,2013-01-09 13:12:00,
2013-01-09 07:23:00,45.0,40.0,30.36,North,360,0.0,0.0,83,0.00,,,0.00,,2013-01-09 13:23:00,
2013-01-09 07:33:00,44.0,39.0,30.37,North,360,0.0,0.0,83,0.00,,,0.00,,2013-01-09 13:33:00,
2013-01-09 07:43:00,44.0,39.0,30.37,North,360,0.0,0.0,83,0.00,,,0.00,,2013-01-09 13:43:00,
2013-01-09 07:53:00,43.0,38.0,30.38,North,360,0.0,0.0,83,0.00,,,0.00,,2013-01-09 13:53:00,
2013-01-09 08:03:00,42.0,38.0,30.39,ESE,106,0.0,0.0,84,0.00,,,0.00,,2013-01-09 14:03:00,
2013-01-09 08:12:00,42.0,38.0,30.39,ESE,106,0.0,0.0,84,0.00,,,0.00,,2013-01-09 14:12:00,
2013-01-09 08:22:00,41.0,37.0,30.39,East,89,0.0,0.0,85,0.00,,,0.00,,2013-01-09 14:22:00,
2013-01-09 08:33:00,43.0,39.0,30.40,SW,217,0.0,0.0,86,0.00,,,0.00,,2013-01-09 14:33:00,
2013-01-09 08:43:00,43.0,39.0,30.40,SW,217,0.0,0.0,86,0.00,,,0.00,,2013-01-09 14:43:00,
2013-01-09 08:53:00,44.0,40.0,30.41,SW,235,0.0,0.0,86,0.00,,,0.00,,2013-01-09 14:53:00,
2013-01-09 09:03:00,45.0,40.0,30.41,North,360,0.0,0.0,83,0.00,,,0.00,,2013-01-09 15:03:00,
2013-01-09 09:12:00,45.0,40.0,30.41,North,360,0.0,0.0,83,0.00,,,0.00,,2013-01-09 15:12:00,
2013-01-09 09:23:00,45.0,39.0,30.41,North,360,0.0,0.0,80,0.00,,,0.00,,2013-01-09 15:23:00,
2013-01-09 09:33:00,46.0,39.0,30.42,North,360,0.0,0.0,77,0.00,,,0.00,,2013-01-09 15:33:00,
2013-01-09 09:42:00,46.0,39.0,30.42,North,360,0.0,0.0,77,0.00,,,0.00,,2013-01-09 15:42:00,
2013-01-09 09:53:00,48.0,40.0,30.42,SSW,196,0.0,0.0,74,0.00,,,0.00,,2013-01-09 15:53:00,
2013-01-09 10:03:00,49.0,39.0,30.43,North,360,0.0,0.0,69,0.00,,,0.00,,2013-01-09 16:03:00,
2013-01-09 10:12:00,49.0,39.0,30.43,North,360,0.0,0.0,69,0.00,,,0.00,,2013-01-09 16:12:00,
2013-01-09 10:23:00,50.0,39.0,30.44,SSE,156,0.0,0.0,67,0.00,,,0.00,,2013-01-09 16:23:00,
2013-01-09 10:33:00,51.0,40.0,30.44,SSE,163,0.0,0.0,66,0.00,,,0.00,,2013-01-09 16:33:00,
2013-01-09 10:43:00,51.0,40.0,30.44,SSE,163,0.0,0.0,66,0.00,,,0.00,,2013-01-09 16:43:00,
2013-01-09 10:53:00,52.0,40.0,30.43,North,360,0.0,0.0,63,0.00,,,0.00,,2013-01-09 16:53:00,
2013-01-09 11:02:00,53.0,40.0,30.44,North,360,0.0,0.0,61,0.00,,,0.00,,2013-01-09 17:02:00,
2013-01-09 11:12:00,53.0,40.0,30.44,North,360,0.0,0.0,61,0.00,,,0.00,,2013-01-09 17:12:00,
2013-01-09 11:23:00,54.0,41.0,30.44,South,176,0.0,0.0,61,0.00,,,0.00,,2013-01-09 17:23:00,
2013-01-09 11:32:00,55.0,40.0,30.45,SSW,199,0.0,0.0,56,0.00,,,0.00,,2013-01-09 17:32:00,
2013-01-09 11:43:00,55.0,40.0,30.45,SSW,199,0.0,0.0,56,0.00,,,0.00,,2013-01-09 17:43:00,
2013-01-09 11:53:00,56.0,40.0,30.44,North,360,0.0,0.0,55,0.00,,,0.00,,2013-01-09 17:53:00,
2013-01-09 12:03:00,57.0,39.0,30.43,North,360,0.0,0.0,50,0.00,,,0.00,,2013-01-09 18:03:00,
2013-01-09 12:12:00,57.0,39.0,30.43,North,360,0.0,0.0,50,0.00,,,0.00,,2013-01-09 18:12:00,
2013-01-09 12:23:00,58.0,39.0,30.43,North,360,0.0,0.0,49,0.00,,,0.00,,2013-01-09 18:23:00,
2013-01-09 12:33:00,57.0,38.0,30.43,SW,218,0.0,0.0,48,0.00,,,0.00,,2013-01-09 18:33:00,
2013-01-09 12:43:00,57.0,38.0,30.43,SW,218,0.0,0.0,48,0.00,,,0.00,,2013-01-09 18:43:00,
2013-01-09 12:53:00,58.0,39.0,30.42,North,9,0.0,0.0,49,0.00,,,0.00,,2013-01-09 18:53:00,
2013-01-09 13:03:00,58.0,39.0,30.42,North,360,0.0,0.0,50,0.00,,,0.00,,2013-01-09 19:03:00,
2013-01-09 13:12:00,58.0,39.0,30.42,North,360,0.0,0.0,50,0.00,,,0.00,,2013-01-09 19:12:00,
2013-01-09 13:22:00,57.0,38.0,30.42,North,360,0.0,0.0,49,0.00,,,0.00,,2013-01-09 19:22:00,
2013-01-09 13:33:00,57.0,38.0,30.42,North,360,0.0,0.0,49,0.00,,,0.00,,2013-01-09 19:33:00,
2013-01-09 13:43:00,57.0,38.0,30.42,North,360,0.0,0.0,49,0.00,,,0.00,,2013-01-09 19:43:00,
2013-01-09 13:53:00,57.0,37.0,30.43,North,360,0.0,0.0,47,0.00,,,0.00,,2013-01-09 19:53:00,
2013-01-09 14:02:00,57.0,37.0,30.42,North,360,0.0,0.0,47,0.00,,,0.00,,2013-01-09 20:02:00,
2013-01-09 14:12:00,57.0,37.0,30.42,North,360,0.0,0.0,47,0.00,,,0.00,,2013-01-09 20:12:00,
2013-01-09 14:23:00,57.0,36.0,30.43,North,360,0.0,0.0,45,0.00,,,0.00,,2013-01-09 20:23:00,
2013-01-09 14:33:00,57.0,36.0,30.44,NNE,18,0.0,0.0,46,0.00,,,0.00,,2013-01-09 20:33:00,
2013-01-09 14:42:00,57.0,36.0,30.44,NNE,18,0.0,0.0,46,0.00,,,0.00,,2013-01-09 20:42:00,
2013-01-09 14:53:00,57.0,36.0,30.43,North,360,0.0,0.0,46,0.00,,,0.00,,2013-01-09 20:53:00,
2013-01-09 15:03:00,57.0,35.0,30.44,North,360,0.0,0.0,44,0.00,,,0.00,,2013-01-09 21:03:00,
2013-01-09 15:12:00,57.0,35.0,30.44,North,360,0.0,0.0,44,0.00,,,0.00,,2013-01-09 21:12:00,
2013-01-09 15:22:00,56.0,34.0,30.44,North,360,0.0,0.0,43,0.00,,,0.00,,2013-01-09 21:22:00,
2013-01-09 15:33:00,56.0,33.0,30.45,North,360,0.0,0.0,42,0.00,,,0.00,,2013-01-09 21:33:00,
2013-01-09 15:43:00,56.0,33.0,30.45,North,360,0.0,0.0,42,0.00,,,0.00,,2013-01-09 21:43:00,
2013-01-09 15:53:00,55.0,33.0,30.45,North,360,0.0,0.0,43,0.00,,,0.00,,2013-01-09 21:53:00,
2013-01-09 16:03:00,55.0,33.0,30.45,North,360,0.0,0.0,43,0.00,,,0.00,,2013-01-09 22:03:00,
2013-01-09 16:12:00,55.0,33.0,30.45,North,360,0.0,0.0,43,0.00,,,0.00,,2013-01-09 22:12:00,
2013-01-09 16:23:00,54.0,31.0,30.45,North,360,0.0,0.0,42,0.00,,,0.00,,2013-01-09 22:23:00,
2013-01-09 16:33:00,53.0,31.0,30.46,North,360,0.0,0.0,43,0.00,,,0.00,,2013-01-09 22:33:00,
2013-01-09 16:43:00,53.0,31.0,30.46,North,360,0.0,0.0,43,0.00,,,0.00,,2013-01-09 22:43:00,
2013-01-09 16:52:00,52.0,32.0,30.46,North,360,0.0,0.0,47,0.00,,,0.00,,2013-01-09 22:52:00,
2013-01-09 17:02:00,50.0,32.0,30.45,North,360,0.0,0.0,50,0.00,,,0.00,,2013-01-09 23:02:00,
2013-01-09 17:12:00,50.0,32.0,30.45,North,360,0.0,0.0,50,0.00,,,0.00,,2013-01-09 23:12:00,
2013-01-09 17:22:00,47.0,31.0,30.45,North,360,0.0,0.0,53,0.00,,,0.00,,2013-01-09 23:22:00,
2013-01-09 17:33:00,45.0,30.0,30.46,North,360,0.0,0.0,56,0.00,,,0.00,,2013-01-09 23:33:00,
2013-01-09 17:43:00,45.0,30.0,30.46,North,360,0.0,0.0,56,0.00,,,0.00,,2013-01-09 23:43:00,
2013-01-09 17:53:00,43.0,30.0,30.46,North,360,0.0,0.0,60,0.00,,,0.00,,2013-01-09 23:53:00,
2013-01-09 18:03:00,41.0,29.0,30.47,North,360,0.0,0.0,62,0.00,,,0.00,,2013-01-10 00:03:00,
2013-01-09 18:12:00,41.0,29.0,30.47,North,360,0.0,0.0,62,0.00,,,0.00,,2013-01-10 00:12:00,
2013-01-09 18:22:00,40.0,29.0,30.47,North,360,0.0,0.0,65,0.00,,,0.00,,2013-01-10 00:22:00,
2013-01-09 18:32:00,40.0,30.0,30.48,North,360,0.0,0.0,66,0.00,,,0.00,,2013-01-10 00:32:00,
2013-01-09 18:42:00,40.0,30.0,30.48,North,360,0.0,0.0,66,0.00,,,0.00,,2013-01-10 00:42:00,
2013-01-09 18:53:00,39.0,29.0,30.49,North,360,0.0,0.0,68,0.00,,,0.00,,2013-01-10 00:53:00,
2013-01-09 19:02:00,39.0,30.0,30.50,North,360,0.0,0.0,69,0.00,,,0.00,,2013-01-10 01:02:00,
2013-01-09 19:12:00,39.0,30.0,30.50,North,360,0.0,0.0,69,0.00,,,0.00,,2013-01-10 01:12:00,
2013-01-09 19:22:00,39.0,30.0,30.50,NNE,15,0.0,0.0,71,0.00,,,0.00,,2013-01-10 01:22:00,
2013-01-09 19:32:00,39.0,31.0,30.51,NNE,28,0.0,0.0,72,0.00,,,0.00,,2013-01-10 01:32:00,
2013-01-09 19:42:00,39.0,31.0,30.51,NNE,28,0.0,0.0,72,0.00,,,0.00,,2013-01-10 01:42:00,
2013-01-09 19:53:00,39.0,31.0,30.51,NE,36,0.0,0.0,74,0.00,,,0.00,,2013-01-10 01:53:00,
2013-01-09 20:02:00,40.0,32.0,30.50,NE,37,0.0,0.0,73,0.00,,,0.00,,2013-01-10 02:02:00,
2013-01-09 20:12:00,40.0,32.0,30.50,NE,37,0.0,0.0,73,0.00,,,0.00,,2013-01-10 02:12:00,
2013-01-09 20:22:00,40.0,32.0,30.51,NE,37,0.0,0.0,72,0.00,,,0.00,,2013-01-10 02:22:00,
2013-01-09 20:32:00,40.0,32.0,30.51,NE,36,0.0,0.0,72,0.00,,,0.00,,2013-01-10 02:32:00,
2013-01-09 20:42:00,40.0,32.0,30.51,NE,36,0.0,0.0,72,0.00,,,0.00,,2013-01-10 02:42:00,
2013-01-09 20:52:00,40.0,32.0,30.51,NE,36,0.0,0.0,72,0.00,,,0.00,,2013-01-10 02:52:00,
2013-01-09 21:02:00,41.0,33.0,30.51,NE,34,0.0,0.0,72,0.00,,,0.00,,2013-01-10 03:02:00,
2013-01-09 21:12:00,41.0,33.0,30.51,NE,34,0.0,0.0,72,0.00,,,0.00,,2013-01-10 03:12:00,
2013-01-09 21:22:00,41.0,32.0,30.51,NE,40,0.0,0.0,71,0.00,,,0.00,,2013-01-10 03:22:00,
2013-01-09 21:32:00,41.0,32.0,30.51,NE,42,0.0,0.0,70,0.00,,,0.00,,2013-01-10 03:32:00,
2013-01-09 21:42:00,41.0,32.0,30.51,NE,42,0.0,0.0,70,0.00,,,0.00,,2013-01-10 03:42:00,
2013-01-09 21:53:00,41.0,32.0,30.52,NE,41,0.0,0.0,70,0.00,,,0.00,,2013-01-10 03:53:00,
2013-01-09 22:02:00,40.0,32.0,30.51,NE,42,0.0,0.0,72,0.00,,,0.00,,2013-01-10 04:02:00,
2013-01-09 22:12:00,40.0,32.0,30.51,NE,42,0.0,0.0,72,0.00,,,0.00,,2013-01-10 04:12:00,
2013-01-09 22:22:00,39.0,31.0,30.50,NE,44,0.0,0.0,73,0.00,,,0.00,,2013-01-10 04:22:00,
2013-01-09 22:32:00,40.0,33.0,30.52,ENE,61,0.0,0.0,75,0.00,,,0.00,,2013-01-10 04:32:00,
2013-01-09 22:42:00,40.0,33.0,30.52,ENE,61,0.0,0.0,75,0.00,,,0.00,,2013-01-10 04:42:00,
2013-01-09 22:52:00,41.0,33.0,30.51,NE,56,0.0,0.0,74,0.00,,,0.00,,2013-01-10 04:52:00,
2013-01-09 23:03:00,42.0,34.0,30.50,NE,53,0.0,0.0,73,0.00,,,0.00,,2013-01-10 05:03:00,
2013-01-09 23:12:00,42.0,34.0,30.50,NE,53,0.0,0.0,73,0.00,,,0.00,,2013-01-10 05:12:00,
2013-01-09 23:22:00,42.0,34.0,30.49,NE,51,0.0,0.0,73,0.00,,,0.00,,2013-01-10 05:22:00,
2013-01-09 23:33:00,42.0,33.0,30.49,NE,55,0.0,0.0,71,0.00,,,0.00,,2013-01-10 05:33:00,
2013-01-09 23:42:00,42.0,33.0,30.49,NE,55,0.0,0.0,71,0.00,,,0.00,,2013-01-10 05:42:00,
2013-01-09 23:53:00,43.0,34.0,30.49,NE,53,0.0,0.0,69,0.00,,,0.00,,2013-01-10 05:53:00,